Canton, GA

2:01 PM EDT on June 25, 2017 (GMT -0400)
Canton

Weather History for KCNI - January, 2014

Change the Weather History Date:

Friday, January 24, 2014

  Actual Average (KMGE) Record (KMGE)
Temperature  
Mean Temperature 20 °F -  
Max Temperature 33 °F 49 °F 68 °F (2002)
Min Temperature 8 °F 32 °F 6 °F (2003)
Degree Days  
Heating Degree Days 44    
Moisture  
Dew Point -13 °F    
Average Humidity 31    
Maximum Humidity 67    
Minimum Humidity 4    
Precipitation  
Precipitation 0.00 in - - ()
Sea Level Pressure  
Sea Level Pressure 30.45 in    
Wind  
Wind Speed 4 mph (WNW)    
Max Wind Speed 12 mph    
Max Gust Speed 20 mph    
Visibility 10 miles    
Events      
Averages and records for this station are not official NWS values.
T = Trace of Precipitation, MM = Missing Value Source: NWS Daily Summary

Daily Weather History Graph

Daily Weather History Graph

Search for Another Location

Airport or City:

Trip Planner

Search our weather history database for the weather conditions in past years. The results will help you decide how hot, cold, wet, or windy it might be!

Date:

Astronomy

Jan. 24, 2014 Rise Set
Actual Time 7:40 AM EST 5:59 PM EST
Civil Twilight 7:13 AM EST 6:26 PM EST
Nautical Twilight 6:43 AM EST 6:56 PM EST
Astronomical Twilight 6:13 AM EST 7:26 PM EST
Moon 1:10 AM EST (1/24) 12:15 PM EST (1/24)
Length of Visible Light 11h 13m
Length of Day
10h 19m
Last Quarter, 45% of the Moon is Illuminated
Jan 24
Last Quarter
Jan 30
New
Feb 6
First Quarter
Feb 14
Full
Feb 22
Last Quarter

Hourly Weather History & Observations

Time (EST) Temp. Windchill Dew Point Humidity Pressure Visibility Wind Dir Wind Speed Gust Speed Precip Events Conditions
12:55 AM 15.8 °F 5.1 °F -4.0 °F 41% 30.52 in 10.0 mi NW 8.1 mph 19.6 mph N/A   Clear
1:55 AM 14.0 °F 0.5 °F -4.0 °F 45% 30.53 in 10.0 mi NW 11.5 mph 19.6 mph N/A   Clear
2:15 AM 14.0 °F 2.9 °F -4.0 °F 45% 30.55 in 10.0 mi NW 8.1 mph 17.3 mph N/A   Clear
2:35 AM 14.0 °F 2.0 °F -4.0 °F 45% 30.55 in 10.0 mi NW 9.2 mph - N/A   Clear
2:55 AM 14.0 °F 5.1 °F -4.0 °F 45% 30.56 in 10.0 mi NW 5.8 mph - N/A   Clear
3:15 AM 14.0 °F 6.5 °F -4.0 °F 45% 30.57 in 10.0 mi NW 4.6 mph - N/A   Clear
3:35 AM 12.2 °F 2.9 °F -2.2 °F 53% 30.57 in 10.0 mi NW 5.8 mph - N/A   Clear
3:55 AM 12.2 °F 4.3 °F -2.2 °F 53% 30.57 in 10.0 mi WNW 4.6 mph - N/A   Clear
4:15 AM 12.2 °F 6.1 °F -2.2 °F 53% 30.57 in 10.0 mi NW 3.5 mph - N/A   Clear
4:35 AM 12.2 °F 6.1 °F -0.4 °F 57% 30.57 in 10.0 mi NW 3.5 mph - N/A   Clear
4:55 AM 12.2 °F 2.9 °F -0.4 °F 57% 30.56 in 10.0 mi NW 5.8 mph - N/A   Clear
5:15 AM 10.4 °F 2.2 °F -0.4 °F 62% 30.56 in 10.0 mi WNW 4.6 mph - N/A   Clear
5:35 AM 10.4 °F 2.2 °F -0.4 °F 62% 30.55 in 10.0 mi WNW 4.6 mph - N/A   Clear
5:55 AM 10.4 °F 2.2 °F -2.2 °F 57% 30.55 in 10.0 mi WNW 4.6 mph - N/A   Clear
6:15 AM 10.4 °F 4.0 °F -2.2 °F 57% 30.55 in 10.0 mi WNW 3.5 mph - N/A   Clear
6:35 AM 10.4 °F - -2.2 °F 57% 30.55 in 10.0 mi Calm Calm - N/A   Clear
6:55 AM 10.4 °F - -0.4 °F 62% 30.56 in 10.0 mi Calm Calm - N/A   Clear
7:15 AM 8.6 °F 2.0 °F -0.4 °F 67% 30.57 in 10.0 mi WNW 3.5 mph - N/A   Clear
7:35 AM 10.4 °F 2.2 °F -0.4 °F 62% 30.57 in 10.0 mi NW 4.6 mph - N/A   Clear
7:55 AM 10.4 °F 4.0 °F -2.2 °F 57% 30.58 in 10.0 mi WNW 3.5 mph - N/A   Clear
8:15 AM 8.6 °F - -2.2 °F 62% 30.58 in 10.0 mi Calm Calm - N/A   Clear
8:35 AM 10.4 °F - -0.4 °F 62% 30.58 in 10.0 mi Calm Calm - N/A   Clear
8:55 AM 12.2 °F - -0.4 °F 57% 30.58 in 10.0 mi Calm Calm - N/A   Clear
9:15 AM 12.2 °F 4.3 °F -2.2 °F 53% 30.59 in 10.0 mi WNW 4.6 mph - N/A   Clear
9:35 AM 14.0 °F - -2.2 °F 49% 30.59 in 10.0 mi Calm Calm - N/A   Clear
9:55 AM 17.6 °F 12.3 °F -4.0 °F 38% 30.59 in 10.0 mi WNW 3.5 mph - N/A   Clear
10:15 AM 19.4 °F 14.3 °F -5.8 °F 33% 30.59 in 10.0 mi WNW 3.5 mph - N/A   Clear
10:35 AM 21.2 °F 16.4 °F -7.6 °F 28% 30.59 in 10.0 mi NNE 3.5 mph - N/A   Clear
10:55 AM 23.0 °F - -9.4 °F 24% 30.58 in 10.0 mi Calm Calm - N/A   Clear
11:15 AM 23.0 °F - -14.8 °F 18% 30.58 in 10.0 mi Calm Calm - N/A   Clear
11:35 AM 24.8 °F - -16.6 °F 16% 30.56 in 10.0 mi Calm Calm - N/A   Clear
11:55 AM 26.6 °F - -16.6 °F 14% 30.55 in 10.0 mi Calm Calm - N/A   Clear
12:15 PM 26.6 °F 21.2 °F -22.0 °F 11% 30.53 in 10.0 mi ENE 4.6 mph - N/A   Clear
12:35 PM 30.2 °F 25.4 °F -18.4 °F 11% 30.50 in 10.0 mi NNE 4.6 mph - N/A   Clear
12:55 PM 30.2 °F 24.3 °F -25.6 °F 8% 30.48 in 10.0 mi ENE 5.8 mph - N/A   Clear
1:15 PM 30.2 °F - -25.6 °F 8% 30.46 in 10.0 mi Calm Calm - N/A   Clear
1:35 PM 32.0 °F 28.7 °F -29.2 °F 6% 30.44 in 10.0 mi SSW 3.5 mph - N/A   Clear
1:55 PM 32.0 °F 28.7 °F -34.6 °F 5% 30.43 in 10.0 mi East 3.5 mph - N/A   Clear
2:15 PM 32.0 °F - -38.2 °F 4% 30.41 in 10.0 mi Calm Calm - N/A   Clear
2:35 PM 33.8 °F 28.6 °F -38.2 °F 4% 30.41 in 10.0 mi SSW 5.8 mph - N/A   Clear
2:55 PM 33.8 °F - -40.0 °F 4% 30.40 in 10.0 mi Calm Calm - N/A   Clear
3:15 PM - - - N/A% 30.39 in 10.0 mi Calm Calm - N/A   Clear
3:35 PM - - - N/A% 30.38 in 10.0 mi Calm Calm - N/A   Clear
3:55 PM - - - N/A% 30.37 in 10.0 mi Calm Calm - N/A   Clear
4:15 PM - - - N/A% 30.36 in 10.0 mi Calm Calm - N/A   Clear
4:35 PM - - - N/A% 30.36 in 10.0 mi Calm Calm - N/A   Clear
4:55 PM 33.8 °F - -47.2 °F 4% 30.35 in 10.0 mi Calm Calm - N/A   Clear
5:15 PM 32.0 °F 28.7 °F -45.4 °F 4% 30.35 in 10.0 mi SW 3.5 mph - N/A   Clear
5:35 PM 32.0 °F 25.6 °F -32.8 °F 5% 30.34 in 10.0 mi SSW 6.9 mph - N/A   Clear
5:55 PM 32.0 °F 27.5 °F -31.0 °F 6% 30.33 in 10.0 mi SW 4.6 mph - N/A   Clear
6:15 PM 30.2 °F 25.4 °F -23.8 °F 9% 30.33 in 10.0 mi SW 4.6 mph - N/A   Clear
6:35 PM 30.2 °F 25.4 °F -20.2 °F 10% 30.33 in 10.0 mi SW 4.6 mph - N/A   Clear
6:55 PM 28.4 °F - -16.6 °F 13% 30.33 in 10.0 mi Calm Calm - N/A   Clear
7:15 PM 28.4 °F 24.6 °F -16.6 °F 13% 30.33 in 10.0 mi West 3.5 mph - N/A   Clear
7:35 PM 26.6 °F - -18.4 °F 13% 30.33 in 10.0 mi Calm Calm - N/A   Clear
7:55 PM 26.6 °F - -20.2 °F 12% 30.32 in 10.0 mi Calm Calm - N/A   Clear
8:15 PM 26.6 °F - -22.0 °F 11% 30.30 in 10.0 mi Calm Calm - N/A   Clear
8:35 PM 26.6 °F - -18.4 °F 13% 30.30 in 10.0 mi Calm Calm - N/A   Clear
8:55 PM 26.6 °F - -18.4 °F 13% 30.30 in 10.0 mi Calm Calm - N/A   Clear
9:15 PM 26.6 °F - -18.4 °F 13% 30.28 in 10.0 mi Calm Calm - N/A   Clear
9:35 PM 23.0 °F - -16.6 °F 17% 30.28 in 10.0 mi Calm Calm - N/A   Clear
9:55 PM 21.2 °F - -14.8 °F 20% 30.28 in 10.0 mi Calm Calm - N/A   Clear
10:15 PM 23.0 °F - -13.0 °F 20% 30.27 in 10.0 mi Calm Calm - N/A   Clear
10:35 PM 19.4 °F - -7.6 °F 30% 30.26 in 10.0 mi Calm Calm - N/A   Clear
10:55 PM 21.2 °F - -9.4 °F 26% 30.26 in 10.0 mi Calm Calm - N/A   Clear
11:15 PM 17.6 °F 12.3 °F -5.8 °F 35% 30.27 in 10.0 mi North 3.5 mph - N/A   Clear
11:35 PM 19.4 °F - -7.6 °F 30% 30.26 in 10.0 mi Calm Calm - N/A   Clear
11:55 PM 15.8 °F 8.6 °F -4.0 °F 41% 30.26 in 10.0 mi NNE 4.6 mph - N/A   Clear